TimeEDT,TemperatureF,Dew PointF,Humidity,Sea Level PressureIn,VisibilityMPH,Wind Direction,Wind SpeedMPH,Gust SpeedMPH,PrecipitationIn,Events,Conditions,WindDirDegrees,DateUTC
12:54 AM,48.0,26.1,42,29.68,10.0,NW,15.0,-,N/A,,Clear,310,2014-03-13 04:54:00
1:54 AM,46.0,24.1,42,29.71,10.0,NW,16.1,-,N/A,,Clear,320,2014-03-13 05:54:00
2:54 AM,44.1,25.0,47,29.74,10.0,NW,10.4,-,N/A,,Scattered Clouds,320,2014-03-13 06:54:00
3:54 AM,42.1,25.0,51,29.75,10.0,NW,9.2,-,N/A,,Scattered Clouds,320,2014-03-13 07:54:00
4:54 AM,42.1,19.0,40,29.79,10.0,NW,15.0,28.8,N/A,,Clear,320,2014-03-13 08:54:00
5:54 AM,41.0,16.0,36,29.83,10.0,NNW,18.4,26.5,N/A,,Clear,330,2014-03-13 09:54:00
6:54 AM,39.0,17.1,41,29.88,10.0,NNW,17.3,-,N/A,,Clear,330,2014-03-13 10:54:00
7:54 AM,37.9,19.0,47,29.93,10.0,NW,10.4,-,N/A,,Partly Cloudy,320,2014-03-13 11:54:00
8:54 AM,39.9,17.1,40,29.97,10.0,NW,16.1,25.3,N/A,,Clear,320,2014-03-13 12:54:00
9:54 AM,42.1,16.0,35,29.99,10.0,NW,20.7,28.8,N/A,,Clear,310,2014-03-13 13:54:00
10:54 AM,43.0,15.1,32,30.01,10.0,WNW,17.3,27.6,N/A,,Clear,300,2014-03-13 14:54:00
11:54 AM,46.0,17.1,31,30.02,10.0,WNW,16.1,26.5,N/A,,Clear,300,2014-03-13 15:54:00
12:54 PM,48.0,17.1,29,30.04,10.0,NW,20.7,32.2,N/A,,Clear,310,2014-03-13 16:54:00
1:54 PM,48.0,15.1,27,30.03,10.0,West,20.7,27.6,N/A,,Clear,280,2014-03-13 17:54:00
2:54 PM,48.9,14.0,25,30.03,10.0,WNW,12.7,25.3,N/A,,Clear,290,2014-03-13 18:54:00
3:54 PM,50.0,14.0,24,30.05,10.0,WNW,16.1,24.2,N/A,,Clear,300,2014-03-13 19:54:00
4:54 PM,50.0,12.0,22,30.06,10.0,NW,19.6,25.3,N/A,,Clear,310,2014-03-13 20:54:00
5:54 PM,50.0,8.1,18,30.09,10.0,NW,10.4,-,N/A,,Clear,320,2014-03-13 21:54:00
6:54 PM,48.0,8.1,20,30.12,10.0,NW,11.5,-,N/A,,Clear,320,2014-03-13 22:54:00
7:54 PM,43.0,10.9,27,30.15,10.0,NW,6.9,-,N/A,,Clear,320,2014-03-13 23:54:00
8:54 PM,35.1,21.0,57,30.18,10.0,WNW,3.5,-,N/A,,Clear,290,2014-03-14 00:54:00
9:54 PM,36.0,19.9,52,30.20,10.0,Calm,Calm,-,N/A,,Clear,0,2014-03-14 01:54:00
10:54 PM,32.0,24.1,73,30.23,10.0,Calm,Calm,-,N/A,,Clear,0,2014-03-14 02:54:00
11:54 PM,30.0,21.9,72,30.24,10.0,Calm,Calm,-,N/A,,Clear,0,2014-03-14 03:54:00